Погода в Херпучи

Россия / Хабаровский край     52°58′43″N   138°50′37″E
темп.,
°C
ветер,
м/с
пор.,
м/с
влажн.,
%
обл.,
%
осадки,
мм/ч
давл.,
гПа
погр.,
м
6 марта, сб
сб601:00−29з22900 0.0 102220
04:00−31зюз22900 0.0 102123
07:00−32зюз22890 0.0 102125
10:00−24з25820 0.0 1021394
13:00−17зсз510670 0.0 10201469
16:00−16сз5106948 0.0 10181504
19:00−20зюз2292100 0.0 101821
22:00−23зюз229169 0.0 101922
7 марта, вс
вс701:00−25зюз22930 0.0 101823
04:00−27юз22950 0.0 101922
07:00−28юз22980 0.0 101922
10:00−21юз23880 0.0 1019238
13:00−15юз24760 0.0 1018522
16:00−12юз24740 0.0 1017715
19:00−17юз22880 0.0 101729
22:00−21юз22940 0.0 101828
8 марта, пн
пн801:00−23юз22970 0.0 101724
04:00−24юз22980 0.0 101724
07:00−25юз22970 0.0 101726
10:00−18юз24900 0.0 1016257
13:00−11юз39780 0.0 1015604
16:00−8юз4117648 0.0 1012706
19:00−11ююз258977 0.0 1011110
22:00−14юз379263 0.0 1011153
9 марта, вт
вт901:00−15юз239289 0.0 101063
04:00−15юз229394 0.0 100925
07:00−14ююз1194100 0.0 100824
10:00−10св0093100 1.0 1008197
13:00−5сз0187100 0.4 1008478
16:00−5с2387100 0.7 1008513
19:00−9сз2288100 0.3 101023
22:00−13сз129183 0.3 101321
10 марта, ср
ср1001:00−15зсз129658 0.0 101420
04:00−16зсз229543 0.0 101620
07:00−17зюз119640 0.0 101920
10:00−9зюз128920 0.0 1019232
13:00−4юз23780 0.0 1018623
16:00−3ююз24780 0.0 1016698
19:00−8ююв12860 0.0 101721
22:00−10ю129133 0.0 101722